#timestamp,LO_Frequency,Hit,StdDev 
1578816015.3,286046999.9,N
1578816035.1,286047000.2,N
1578816055.9,286046998.6,N
1578816075.7,286046999.2,N
1578816095.5,286046999.5,N
1578816115.4,286046999.6,N
1578816135.2,286046996.7,Y
1578816155.1,286047000.8,P
1578816156.0,286047000.8,N
1578816175.8,286046998.7,N
1578816195.6,286046999.1,N
1578816215.5,286046996.5,Y
1578816235.3,286046996.7,P
1578816255.2,286046996.7,N
1578816275.9,286046999.3,N
1578816295.7,286047000.6,N
1578816315.6,286047002.2,N
1578816335.4,286047002.1,N
1578816355.2,286047002.4,N
1578816375.1,286046999.8,N
1578816376.0,286046999.8,N
1578816395.8,286047000.1,N
1578816415.7,286047001.6,N
1578816435.5,286047001.9,N
1578816455.3,286046999.7,N
1578816475.2,286046999.0,N
1578816495.0,286046996.9,N
1578816495.9,286046996.9,N
1578816515.8,286046999.0,N
1578816535.6,286047000.0,N
1578816555.4,286047002.6,N
1578816575.3,286046998.9,N
1578816595.1,286046999.2,N
1578816615.8,286046999.5,N
1578816635.7,286046999.1,N
1578816655.5,286046998.3,N
1578816675.4,286047000.7,N
1578816695.2,286046998.4,N
1578816715.0,286046996.7,N
1578816715.9,286046996.7,N
1578816735.8,286046996.8,N
1578816755.6,286046998.3,N
1578816775.4,286047002.0,N
1578816795.3,286047000.3,N
1578816815.1,286047000.5,N
1578816835.9,286047002.4,N
1578816855.7,286047000.7,N
1578816875.5,286046999.8,N
1578816895.4,286046999.7,N
1578816915.2,286047001.2,N
1578816935.1,286046998.1,N
1578816936.0,286046998.1,N
1578816955.8,286047000.5,N
1578816975.6,286047000.8,N
1578816995.5,286047000.9,N
1578817015.3,286047001.8,N
1578817035.2,286047001.6,N
1578817055.9,286047001.7,N
1578817075.7,286047003.1,N
1578817095.6,286047004.4,N
1578817115.4,286047001.6,N
1578817135.2,286047001.6,N
1578817155.1,286047003.5,N
1578817156.0,286047003.5,N
1578817175.8,286047001.7,N
1578817195.7,286047000.2,N
1578817215.5,286047000.8,N
1578817235.3,286047001.2,N
1578817255.2,286047000.5,N
1578817275.0,286047001.1,N
1578817275.9,286047001.1,N
1578817295.7,286047002.4,N
1578817315.6,286047000.8,N
1578817335.4,286047001.0,N
1578817355.3,286046998.5,N
1578817375.1,286047000.9,N
1578817376.0,286047000.9,N
1578817395.8,286046999.7,N
1578817415.7,286046998.8,N
1578817435.5,286046999.3,N
1578817455.4,286046996.8,N
1578817475.3,286046996.9,N
1578817495.1,286046998.1,N
1578817515.9,286046999.0,N
1578817535.7,286047000.5,N
1578817555.5,286046998.1,N
1578817575.4,286046999.3,N
1578817595.2,286046999.1,N
1578817615.0,286046999.5,N
1578817616.0,286046999.5,N
1578817635.8,286046998.3,N
1578817655.6,286046999.4,N
1578817675.5,286046999.4,N
1578817695.3,286046998.5,N
1578817715.1,286046998.2,N
1578817735.9,286047001.2,N
1578817755.7,286047001.2,N
1578817775.6,286047000.7,N
1578817795.4,286047000.7,N
1578817815.2,286047000.3,N
1578817835.1,286047001.1,N
1578817836.0,286047001.1,N
1578817855.8,286046998.7,N
1578817875.7,286046996.6,N
1578817895.5,286046998.3,N
1578817915.3,286047000.4,N
1578817935.2,286047002.7,N
1578817955.0,286047000.1,N
1578817955.9,286047000.1,N
1578817975.7,286047000.3,N
1578817995.6,286047000.9,N
1578818015.4,286047000.3,N
1578818035.3,286047000.1,N
1578818055.1,286046998.4,N
1578818056.0,286046998.4,N
1578818075.8,286046998.3,N
1578818095.7,286047000.8,N
1578818115.5,286047002.4,N
1578818135.4,286046998.5,N
1578818155.2,286047000.6,N
1578818175.0,286047001.8,N
1578818175.9,286047001.8,N
1578818195.8,286047002.2,N
1578818215.6,286047000.0,N
1578818235.5,286047000.9,N
1578818255.3,286046998.9,N
1578818275.1,286046997.1,N
1578818295.9,286046997.2,N
1578818315.7,286046997.9,N
1578818335.5,286046997.3,N
1578818355.4,286046995.6,N
1578818375.2,286046996.0,N
1578818395.1,286046993.7,Y
1578818396.0,286046993.7,P
1578818415.8,286046995.6,N
1578818435.6,286046995.6,N
1578818455.5,286046994.0,N
1578818475.3,286046994.3,N
1578818495.2,286046993.9,Y
1578818515.0,286047001.0,P
1578818515.9,286047001.0,N
1578818535.8,286047000.6,N
1578818555.6,286046999.9,N
1578818575.4,286046998.5,N
1578818595.3,286046998.3,N
1578818615.1,286046996.5,N
1578818635.8,286046999.1,N
1578818655.7,286046997.5,N
1578818675.5,286046995.6,N
1578818695.4,286046994.5,N
1578818715.2,286046994.8,N
1578818735.0,286046992.4,Y
1578818735.9,286046992.4,P
1578818755.8,286046995.8,N
1578818775.6,286046993.4,N
1578818795.5,286046994.4,N
1578818815.3,286046992.2,Y
1578818835.1,286046996.2,P
1578818855.9,286046995.7,P
1578818875.7,286046997.8,P
1578818895.6,286046995.6,Y
1578818915.4,286046999.0,P
1578818935.2,286046997.8,N
1578818955.1,286046997.3,N
1578818956.0,286046997.3,N
1578818975.8,286046999.1,N
1578818995.6,286046999.2,N
1578819015.5,286046998.4,N
1578819035.3,286046996.5,Y
1578819055.2,286046998.7,P
1578819075.9,286046996.9,P
1578819095.7,286046998.8,N
1578819115.6,286047001.2,N
1578819135.4,286046998.3,N
1578819155.3,286046998.4,N
1578819175.1,286046999.4,N
1578819176.0,286046999.4,N
1578819195.8,286046996.9,N
1578819215.7,286046998.0,N
1578819235.5,286046997.8,N
1578819255.3,286046997.7,N
1578819275.2,286046995.2,Y
1578819295.0,286046997.3,P
1578819295.9,286046997.3,P
1578819315.8,286046999.6,N
1578819335.6,286046999.5,N
1578819355.4,286046998.9,N
1578819375.3,286046999.4,N
1578819395.1,286046999.3,N
1578819415.9,286046998.8,N
1578819435.7,286046999.5,N
1578819455.5,286046996.7,Y
1578819475.4,286046998.4,P
1578819495.2,286046998.7,P
1578819515.1,286046997.3,P
1578819516.0,286046997.3,Y
1578819535.8,286047000.4,P
1578819555.6,286047002.0,N
1578819575.5,286047000.4,N
1578819595.3,286046998.2,N
